ZHONGXING-6B

Last updated on Tue Feb 17 2026 00:02:46 GMT+0000 (Coordinated Universal Time)

1 31800U 07031A 26047.61824848 -.00000154 00000+0 00000+0 0 9992 2 31800 2.1268 80.7750 0010292 237.8440 161.7458 0.99060161 68202
UTC large
Height (km)
Speed (km/s)
/
Latitude / Longitude
Inclination (degrees)
Orbital Period (minutes)
Azimuth
Elevation
Range (km)
Doppler Factor

Next 0 passes for location: London (51.5072 / 0.1276)

Sorry there are no passes over London.
ZHONGXING-6B